CW9206 Weather Reports


time (UTC)temp
C
wind
direction
speed
KPH
gust
KPH
rain 1hr
cm
rain 24hr
cm
rain mn
cm
humidity
%
barometer
mb
20260903100303 16 218 0.0 0.0 0.00 0.00 0.00 6 1014.8
20260903095803 16 218 0.0 0.0 0.00 0.00 0.00 6 1014.9
20260903095305 16 218 0.0 0.0 0.00 0.00 0.00 6 1014.9
20260903094803 16 218 0.0 0.0 0.00 0.00 0.00 6 1015.0
20260903093803 16 218 0.0 0.0 0.00 0.00 0.00 6 1015.1
20260903093302 17 218 0.0 0.0 0.00 0.00 0.00 5 1015.1
20260903092803 17 218 0.0 0.0 0.00 0.00 0.00 5 1015.2
20260903092306 17 218 0.0 0.0 0.00 0.00 0.00 5 1015.2
20260903091802 17 218 0.0 0.0 0.00 0.00 0.00 5 1015.2
20260903090302 17 218 0.0 0.0 0.00 0.00 0.00 4 1015.3
20260903085802 17 218 0.0 0.0 0.00 0.00 0.00 4 1015.4
20260903085305 17 218 0.0 0.0 0.00 0.00 0.00 4 1015.4
20260903084802 17 218 0.0 0.0 0.00 0.00 0.00 4 1015.4
20260903084302 17 218 0.0 0.0 0.00 0.00 0.00 4 1015.4
20260903083802 17 218 0.0 0.0 0.00 0.00 0.00 4 1015.5
20260903083302 17 218 0.0 0.0 0.00 0.00 0.00 4 1015.5
20260903082802 17 218 0.0 0.0 0.00 0.00 0.00 4 1015.6
20260903082305 17 218 0.0 0.0 0.00 0.00 0.00 4 1015.5
20260903081802 17 218 0.0 0.0 0.00 0.00 0.00 4 1015.5
20260903081302 17 218 0.0 0.0 0.00 0.00 0.00 4 1015.5
20260903080802 17 218 0.0 0.0 0.00 0.00 0.00 4 1015.6
20260903080302 17 218 0.0 0.0 0.00 0.00 0.00 4 1015.6
20260903075301 16 218 0.0 0.0 0.00 0.00 0.00 4 1015.6
20260903074801 16 218 0.0 0.0 0.00 0.00 0.00 4 1015.7
20260903074302 16 218 0.0 0.0 0.00 0.00 0.00 4 1015.9
20260903073801 16 218 0.0 0.0 0.00 0.00 0.00 4 1015.8
20260903073301 16 218 0.0 0.0 0.00 0.00 0.00 4 1015.8
20260903072801 16 218 0.0 0.0 0.00 0.00 0.00 4 1015.8
20260903072301 16 218 0.0 0.0 0.00 0.00 0.00 4 1015.8
20260903071301 16 218 0.0 0.0 0.00 0.00 0.00 4 1015.9
20260903070301 16 218 0.0 0.0 0.00 0.00 0.00 4 1015.6
20260903065301 16 218 0.0 0.0 0.00 0.00 0.00 4 1015.5
20260903064801 16 218 0.0 0.0 0.00 0.00 0.00 4 1015.4
20260903064301 16 218 0.0 0.0 0.00 0.00 0.00 4 1015.5
20260903063801 16 218 0.0 0.0 0.00 0.00 0.00 4 1015.5
20260903062801 17 218 0.0 0.0 0.00 0.00 0.00 4 1015.5
20260903062301 17 218 0.0 0.0 0.00 0.00 0.00 4 1015.6
20260903061800 17 218 0.0 0.0 0.00 0.00 0.00 4 1015.6
20260903061301 17 218 0.0 0.0 0.00 0.00 0.00 4 1015.5
20260903060301 17 218 0.0 0.0 0.00 0.00 0.00 4 1015.6
20260903055800 17 218 0.0 0.0 0.00 0.00 0.00 5 1015.5
20260903055300 17 218 0.0 0.0 0.00 0.00 0.00 5 1015.5
20260903054800 17 218 0.0 0.0 0.00 0.00 0.00 5 1015.6
20260903054300 17 218 0.0 0.0 0.00 0.00 0.00 6 1015.6
20260903053801 17 218 0.0 0.0 0.00 0.00 0.00 6 1015.6
20260903053300 17 218 0.0 0.0 0.00 0.00 0.00 7 1015.5
20260903052800 17 218 0.0 0.0 0.00 0.00 0.00 7 1015.6
20260903052301 17 218 0.0 0.0 0.00 0.00 0.00 7 1015.6
20260903051800 17 218 0.0 0.0 0.00 0.00 0.00 7 1015.6
20260903051300 17 218 0.0 0.0 0.00 0.00 0.00 8 1015.7
20260903045801 17 218 0.0 0.0 0.00 0.00 0.00 10 1015.6
20260903045300 18 218 0.0 0.0 0.00 0.00 0.00 10 1015.7
20260903044800 18 218 0.0 0.0 0.00 0.00 0.00 11 1015.7
20260903044300 18 218 0.0 0.0 0.00 0.00 0.00 11 1015.8
20260903043800 18 218 0.0 0.0 0.00 0.00 0.00 12 1015.7
20260903043300 18 218 0.0 0.0 0.00 0.00 0.00 12 1015.7
20260903042800 18 218 0.0 0.0 0.00 0.00 0.00 13 1015.7
20260903042259 18 218 0.0 0.0 0.00 0.00 0.00 14 1015.7
20260903041300 18 218 0.0 0.0 0.00 0.00 0.00 15 1015.6
20260903040759 18 218 0.0 0.0 0.00 0.00 0.00 15 1015.5
20260903040300 18 218 0.0 0.0 0.00 0.00 0.00 16 1015.5
20260903034800 18 218 0.0 0.0 0.00 0.00 0.00 19 1015.1
20260903034259 19 218 0.0 0.0 0.00 0.00 0.00 21 1015.1
20260903033759 19 218 0.0 0.0 0.00 0.00 0.00 22 1015.1
20260903033259 19 218 0.0 0.0 0.00 0.00 0.00 24 1015.0
20260903032759 19 218 0.0 0.0 0.00 0.00 0.00 25 1014.9
20260903032259 20 218 0.0 0.0 0.00 0.00 0.00 27 1014.9
20260903031759 20 218 0.0 0.0 0.00 0.00 0.00 28 1014.9
20260903031259 20 218 0.0 0.0 0.00 0.00 0.00 29 1014.8
20260903030759 20 218 0.0 0.0 0.00 0.00 0.00 30 1014.8
20260903030259 20 218 0.0 0.0 0.00 0.00 0.00 31 1014.7
20260903025759 21 218 0.0 0.0 0.00 0.00 0.00 32 1014.5
20260903025259 21 218 0.0 0.0 0.00 0.00 0.00 33 1014.5
20260903024758 23 218 0.0 0.0 0.00 0.00 0.00 46 1014.6
20260903024259 23 218 0.0 0.0 0.00 0.00 0.00 46 1014.7
20260903023759 23 218 0.0 0.0 0.00 0.00 0.00 46 1014.6
20260903023258 23 218 0.0 0.0 0.00 0.00 0.00 46 1014.5
20260903022759 23 218 0.0 0.0 0.00 0.00 0.00 46 1014.5
20260903022258 23 218 0.0 0.0 0.00 0.00 0.00 46 1014.3
20260903021758 23 218 0.0 0.0 0.00 0.00 0.00 46 1014.4
20260903021258 23 218 0.0 0.0 0.00 0.00 0.00 46 1014.4
20260903020258 23 218 0.0 0.0 0.00 0.00 0.00 46 1014.5
20260903015758 23 218 0.0 0.0 0.00 0.00 0.00 46 1014.4
20260903015258 23 218 0.0 0.0 0.00 0.00 0.00 46 1014.3
20260903014758 23 218 0.0 0.0 0.00 0.00 0.00 47 1014.3
20260903014258 24 218 0.0 0.0 0.00 0.00 0.00 47 1014.4
20260903013758 24 218 0.0 0.0 0.00 0.00 0.00 46 1014.4
20260903013258 24 218 0.0 0.0 0.00 0.00 0.00 46 1014.3
20260903012758 24 218 0.0 0.0 0.00 0.00 0.00 45 1014.3
20260903012258 25 218 0.0 0.0 0.00 0.00 0.00 46 1014.3
20260903011758 25 218 0.0 0.0 0.00 0.00 0.00 47 1014.3
20260903011257 25 218 0.0 0.0 0.00 0.00 0.00 46 1014.4
20260903010757 25 218 0.0 0.0 0.00 0.00 0.00 46 1014.3
20260903005757 26 218 0.0 0.0 0.00 0.00 0.00 45 1014.3
20260903005257 26 218 0.0 0.0 0.00 0.00 0.00 42 1014.2
20260903004757 27 218 0.0 0.0 0.00 0.00 0.00 41 1014.1
20260903004257 27 218 0.0 0.0 0.00 0.00 0.00 43 1014.2
20260903003757 27 218 0.0 0.0 0.00 0.00 0.00 42 1014.2
20260903003258 28 218 0.0 0.0 0.00 0.00 0.00 42 1014.2
20260903002757 28 218 0.0 0.0 0.00 0.00 0.00 41 1014.1
20260903002257 28 218 0.0 0.0 0.00 0.00 0.00 41 1014.1
20260903001257 28 218 0.0 0.0 0.00 0.00 0.00 40 1014.1
20260902235757 28 218 0.0 0.0 0.00 0.00 0.00 42 1014.2
20260902235257 28 218 0.0 0.0 0.00 0.00 0.00 42 1014.1
20260902234757 28 218 0.0 0.0 0.00 0.00 0.00 42 1014.2
20260902234257 28 218 0.0 0.0 0.00 0.00 0.00 43 1014.2
20260902233757 28 218 0.0 0.0 0.00 0.00 0.00 42 1014.2
20260902232757 29 218 0.0 0.0 0.00 0.00 0.00 41 1014.2
20260902232256 29 218 0.0 0.0 0.00 0.00 0.00 41 1014.2
20260902230757 29 218 0.0 0.0 0.00 0.00 0.00 41 1014.3
20260902230256 30 218 0.0 0.0 0.00 0.00 0.00 40 1014.2
20260902225756 30 218 0.0 0.0 0.00 0.00 0.00 39 1014.2
20260902225256 30 218 0.0 0.0 0.00 0.00 0.00 40 1014.2
20260902224756 30 218 0.0 0.0 0.00 0.00 0.00 40 1014.1
20260902223756 29 218 0.0 0.0 0.00 0.00 0.00 41 1014.3
20260902223256 29 218 0.0 0.0 0.00 0.00 0.00 40 1014.3
20260902222756 30 218 0.0 0.0 0.00 0.00 0.00 39 1014.4
20260902222256 30 218 0.0 0.0 0.00 0.00 0.00 39 1014.4
20260902221756 30 218 0.0 0.0 0.00 0.00 0.00 39 1014.4
20260902221256 30 218 0.0 0.0 0.00 0.00 0.00 39 1014.5
20260902220756 30 218 0.0 0.0 0.00 0.00 0.00 39 1014.6
20260902220256 30 218 0.0 0.0 0.00 0.00 0.00 39 1014.7
20260902215756 30 218 0.0 0.0 0.00 0.00 0.00 39 1014.7
20260902215256 30 218 0.0 0.0 0.00 0.00 0.00 39 1014.8
20260902214755 30 218 0.0 0.0 0.00 0.00 0.00 39 1014.8
20260902214256 30 218 0.0 0.0 0.00 0.00 0.00 39 1014.8
20260902213755 30 218 0.0 0.0 0.00 0.00 0.00 38 1014.7
20260902213256 30 218 0.0 0.0 0.00 0.00 0.00 38 1014.8
20260902212755 30 218 0.0 0.0 0.00 0.00 0.00 38 1014.8
20260902212256 30 218 0.0 0.0 0.00 0.00 0.00 38 1014.9
20260902211755 30 218 0.0 0.0 0.00 0.00 0.00 38 1014.9
20260902210755 30 218 0.0 0.0 0.00 0.00 0.00 38 1014.9
20260902210255 30 218 0.0 0.0 0.00 0.00 0.00 38 1015.0
20260902205755 29 218 0.0 0.0 0.00 0.00 0.00 38 1014.9
20260902205255 29 218 0.0 0.0 0.00 0.00 0.00 38 1014.8
20260902204755 29 218 0.0 0.0 0.00 0.00 0.00 38 1015.0
20260902204255 29 218 0.0 0.0 0.00 0.00 0.00 38 1015.1
20260902203755 29 218 0.0 0.0 0.00 0.00 0.00 38 1015.0
20260902203255 29 218 0.0 0.0 0.00 0.00 0.00 38 1015.1
20260902202755 29 218 0.0 0.0 0.00 0.00 0.00 38 1015.0
20260902201755 30 218 0.0 0.0 0.00 0.00 0.00 37 1015.2
20260902201255 30 218 0.0 0.0 0.00 0.00 0.00 37 1015.2
20260902200755 30 218 0.0 0.0 0.00 0.00 0.00 37 1015.3
20260902195754 29 218 0.0 0.0 0.00 0.00 0.00 36 1015.5
20260902194254 29 218 0.0 0.0 0.00 0.00 0.00 35 1015.7
20260902193754 28 218 0.0 0.0 0.00 0.00 0.00 35 1015.8
20260902193254 28 218 0.0 0.0 0.00 0.00 0.00 35 1015.8
20260902192754 27 218 0.0 0.0 0.00 0.00 0.00 35 1015.9
20260902192254 27 218 0.0 0.0 0.00 0.00 0.00 34 1016.0
20260902191754 27 218 0.0 0.0 0.00 0.00 0.00 34 1016.0
20260902191255 27 218 0.0 0.0 0.00 0.00 0.00 34 1016.1
20260902190754 26 218 0.0 0.0 0.00 0.00 0.00 33 1016.1
20260902185754 26 218 0.0 0.0 0.00 0.00 0.00 32 1016.3
20260902185254 26 218 0.0 0.0 0.00 0.00 0.00 31 1016.4
20260902184254 25 218 0.0 0.0 0.00 0.00 0.00 29 1016.4
20260902183754 25 218 0.0 0.0 0.00 0.00 0.00 29 1016.3
20260902183254 24 218 0.0 0.0 0.00 0.00 0.00 27 1016.5
20260902182753 24 218 0.0 0.0 0.00 0.00 0.00 27 1016.6
20260902182254 23 218 0.0 0.0 0.00 0.00 0.00 27 1016.5
20260902181754 23 218 0.0 0.0 0.00 0.00 0.00 26 1016.6
20260902181254 23 218 0.0 0.0 0.00 0.00 0.00 26 1016.6
20260902180754 22 218 0.0 0.0 0.00 0.00 0.00 26 1016.5
20260902180253 22 218 0.0 0.0 0.00 0.00 0.00 25 1016.5
20260902175753 22 218 0.0 0.0 0.00 0.00 0.00 25 1016.6
20260902175253 22 218 0.0 0.0 0.00 0.00 0.00 24 1016.7
20260902174753 22 218 0.0 0.0 0.00 0.00 0.00 23 1016.8
20260902174253 21 218 0.0 0.0 0.00 0.00 0.00 23 1016.7
20260902173753 21 218 0.0 0.0 0.00 0.00 0.00 23 1016.5
20260902173253 21 218 0.0 0.0 0.00 0.00 0.00 22 1016.5
20260902172253 20 218 0.0 0.0 0.00 0.00 0.00 21 1016.5
20260902171753 20 218 0.0 0.0 0.00 0.00 0.00 20 1016.7
20260902171253 20 218 0.0 0.0 0.00 0.00 0.00 19 1016.7
20260902170253 19 218 0.0 0.0 0.00 0.00 0.00 18 1016.6
20260902165253 18 218 0.0 0.0 0.00 0.00 0.00 16 1016.6
20260902164752 18 218 0.0 0.0 0.00 0.00 0.00 15 1016.6
20260902163753 17 218 0.0 0.0 0.00 0.00 0.00 13 1016.4
20260902163253 17 218 0.0 0.0 0.00 0.00 0.00 11 1016.4
20260902162753 17 218 0.0 0.0 0.00 0.00 0.00 9 1016.5
20260902162252 16 218 0.0 0.0 0.00 0.00 0.00 8 1016.5
20260902161752 16 218 0.0 0.0 0.00 0.00 0.00 7 1016.4
20260902161252 15 218 0.0 0.0 0.00 0.00 0.00 6 1016.4
20260902160252 15 218 0.0 0.0 0.00 0.00 0.00 6 1016.6
20260902155752 14 218 0.0 0.0 0.00 0.00 0.00 6 1016.6
20260902155252 13 218 0.0 0.0 0.00 0.00 0.00 7 1016.6
20260902154752 13 218 0.0 0.0 0.00 0.00 0.00 7 1016.6
20260902154251 13 218 0.0 0.0 0.00 0.00 0.00 7 1016.6
20260902153751 12 218 0.0 0.0 0.00 0.00 0.00 8 1016.6
20260902153251 12 218 0.0 0.0 0.00 0.00 0.00 8 1016.6
20260902152752 12 218 0.0 0.0 0.00 0.00 0.00 8 1016.3
20260902152251 12 218 0.0 0.0 0.00 0.00 0.00 8 1016.2
20260902151752 11 218 0.0 0.0 0.00 0.00 0.00 8 1016.1
20260902151252 11 218 0.0 0.0 0.00 0.00 0.00 8 1016.2
20260902150751 11 218 0.0 0.0 0.00 0.00 0.00 8 1016.3
20260902150251 10 218 0.0 0.0 0.00 0.00 0.00 8 1016.4
20260902145751 10 218 0.0 0.0 0.00 0.00 0.00 8 1016.3
20260902145251 10 218 0.0 0.0 0.00 0.00 0.00 9 1016.4
20260902144751 10 218 0.0 0.0 0.00 0.00 0.00 9 1016.4
20260902144251 9 218 0.0 0.0 0.00 0.00 0.00 9 1016.3
20260902143751 9 218 0.0 0.0 0.00 0.00 0.00 9 1016.3
20260902143251 9 218 0.0 0.0 0.00 0.00 0.00 9 1016.4
20260902142751 8 218 0.0 0.0 0.00 0.00 0.00 9 1016.3
20260902142251 8 218 0.0 0.0 0.00 0.00 0.00 9 1016.4
20260902141751 8 218 0.0 0.0 0.00 0.00 0.00 9 1016.4
20260902141251 8 218 0.0 0.0 0.00 0.00 0.00 9 1016.4
20260902140751 8 218 0.0 0.0 0.00 0.00 0.00 9 1016.4
20260902134751 8 218 0.0 0.0 0.00 0.00 0.00 10 1016.4
20260902134250 8 218 0.0 0.0 0.00 0.00 0.00 10 1016.4
20260902133751 8 218 0.0 0.0 0.00 0.00 0.00 10 1016.4
20260902133250 8 218 0.0 0.0 0.00 0.00 0.00 10 1016.5
20260902132751 8 218 0.0 0.0 0.00 0.00 0.00 10 1016.4
20260902132250 8 218 0.0 0.0 0.00 0.00 0.00 10 1016.2
20260902131750 8 218 0.0 0.0 0.00 0.00 0.00 10 1016.2
20260902130750 8 218 0.0 0.0 0.00 0.00 0.00 11 1016.2
20260902130250 8 218 0.0 0.0 0.00 0.00 0.00 10 1016.2
20260902125750 8 218 0.0 0.0 0.00 0.00 0.00 11 1016.4
20260902125250 8 218 0.0 0.0 0.00 0.00 0.00 11 1016.2
20260902124750 8 218 0.0 0.0 0.00 0.00 0.00 11 1016.2
20260902123749 8 218 0.0 0.0 0.00 0.00 0.00 11 1016.1
20260902123250 8 218 0.0 0.0 0.00 0.00 0.00 11 1016.1
20260902122750 8 218 0.0 0.0 0.00 0.00 0.00 11 1016.0
20260902122250 8 218 0.0 0.0 0.00 0.00 0.00 10 1016.0
20260902121749 8 218 0.0 0.0 0.00 0.00 0.00 11 1016.0
20260902121250 8 218 0.0 0.0 0.00 0.00 0.00 11 1016.0
20260902120749 8 218 0.0 0.0 0.00 0.00 0.00 12 1016.0
20260902120249 8 218 0.0 0.0 0.00 0.00 0.00 12 1016.0
20260902115249 8 218 0.0 0.0 0.00 0.00 0.00 11 1016.0
20260902114749 9 218 0.0 0.0 0.00 0.00 0.00 11 1016.0
20260902114250 8 218 0.0 0.0 0.00 0.00 0.00 11 1015.8
20260902113750 9 218 0.0 0.0 0.00 0.00 0.00 12 1015.8
20260902113249 9 218 0.0 0.0 0.00 0.00 0.00 10 1015.8
20260902112749 9 218 0.0 0.0 0.00 0.00 0.00 11 1015.8
20260902112249 9 218 0.0 0.0 0.00 0.00 0.00 11 1015.9
20260902111750 9 218 0.0 0.0 0.00 0.00 0.00 10 1015.9
20260902111249 9 218 0.0 0.0 0.00 0.00 0.00 10 1015.8
20260902110750 9 218 0.0 0.0 0.00 0.00 0.00 11 1015.9
20260902110249 9 218 0.0 0.0 0.00 0.00 0.00 11 1015.8
20260902105749 9 218 0.0 0.0 0.00 0.00 0.00 12 1015.8
20260902104249 9 218 0.0 0.0 0.00 0.00 0.00 12 1015.9
20260902103749 10 218 0.0 0.0 0.00 0.00 0.00 11 1015.9
20260902103248 10 218 0.0 0.0 0.00 0.00 0.00 11 1015.9
20260902102748 10 218 0.0 0.0 0.00 0.00 0.00 12 1015.9
20260902101748 10 218 0.0 0.0 0.00 0.00 0.00 11 1015.9
20260902101249 10 218 0.0 0.0 0.00 0.00 0.00 12 1016.0
20260902100748 10 218 0.0 0.0 0.00 0.00 0.00 12 1016.0